This demonstration page uses our WeatherBlox Daily Observations layout. Learn more.

Hourly Observations for February 10, 2017

Temp ( °F °C ) Dew Point ( °F °C ) Humidity (%) Winds ( mph kmh ) Pressure ( in mb ) Visibility ( mi km ) Precip ( " mm )
12:54 am 00:54 Clear 31 -0.6 19 -7.2 61 61 S 8 13 29.91 1013 10 16.0934 0 0
1:54 am 01:54 Clear 30 -1.1 19 -7.2 64 64 S 7 11 29.86 1011 10 16.0934 0 0
2:54 am 02:54 Clear 31 -0.6 21 -6.1 67 67 S 7 11 29.83 1010 10 16.0934 0 0
3:54 am 03:54 Clear 32 0 23 -5 69 69 S 9 15 29.78 1009 10 16.0934 0 0
4:54 am 04:54 Clear 33 0.6 24 -4.4 70 70 S 6 9 29.77 1008 10 16.0934 0 0
5:54 am 05:54 Clear 35 1.7 25 -3.9 67 67 S 8 13 29.75 1008 10 16.0934 0 0
6:54 am 06:54 Clear 38 3.3 26 -3.3 62 62 S 12 19 29.73 1007 10 16.0934 0 0
7:54 am 07:54 Sunny 39 3.9 27 -2.8 62 62 SSW 8 13 29.75 1008 10 16.0934 0 0
8:54 am 08:54 Sunny 42 5.6 28 -2.2 58 58 SSW 13 20 29.75 1007 10 16.0934 0 0
9:54 am 09:54 Sunny 47 8.3 29 -1.7 50 50 SSW 14 22 29.74 1007 10 16.0934 0 0
10:54 am 10:54 Sunny 51 10.6 30 -1.1 44 44 SSW 12 19 29.74 1007 10 16.0934 0 0
11:54 am 11:54 Sunny 55 12.8 31 -0.6 40 40 SSW 10 17 29.73 1007 10 16.0934 0 0
12:54 pm 12:54 Sunny 60 15.6 32 0 35 35 SW 9 15 29.71 1006 10 16.0934 0 0
1:54 pm 13:54 Sunny 66 18.9 33 0.6 29 29 SW 16 26 29.68 1005 10 16.0934 0 0
2:54 pm 14:54 Sunny 67 19.4 34 1.1 30 30 SW 8 13 29.68 1005 10 16.0934 0 0
3:54 pm 15:54 Sunny 70 21.1 35 1.7 28 28 WSW 8 13 29.68 1005 10 16.0934 0 0
4:54 pm 16:54 Sunny 69 20.6 35 1.7 29 29 SSW 3 6 29.68 1005 10 16.0934 0 0
5:54 pm 17:54 Sunny 64 17.8 35 1.7 34 34 ESE 6 9 29.7 1006 10 16.0934 0 0
6:54 pm 18:54 Clear 49 9.4 33 0.6 55 55 Calm 29.72 1007 10 16.0934 0 0
7:54 pm 19:54 Clear 45 7.2 32 0 61 61 NNW 5 7 29.74 1007 10 16.0934 0 0
8:54 pm 20:54 Clear 42 5.6 32 0 68 68 N 8 13 29.76 1008 10 16.0934 0 0
9:54 pm 21:54 Clear 40 4.4 31 -0.6 70 70 NNE 3 6 29.78 1008 10 16.0934 0 0
10:54 pm 22:54 Clear 36 2.2 29 -1.7 76 76 Calm 29.78 1008 10 16.0934 0 0
11:54 pm 23:54 Clear 36 2.2 30 -1.1 79 79 N 7 11 29.79 1009 10 16.0934 0 0

Powered by AerisWeather